Date String (YYYY-MM-DD hh:mm:ss) UTC,Instrument flags,Ambient pressure (hPa),Sample flow (lpm),Bypass flow (lpm),Sample temperature (°C),Ambient temperature (°C),ASC tube jacket temperature (°C),LED temperature (°C),Box temperature (°C),Sample RH (%),Span deviation,Mass concentration (μg/m³),Mass concentration (μg/m³),Mass concentration (μg/m³)
DateTimeUTC,F1_M11,P_M11,Q1_M11,Q2_M11,T1_M11,T2_M11,T3_M11,T4_M11,T5_M11,U1_M11,ZSPAN_M11,X0_M11,X2_M11,X1_M11
2022-03-10 16:00:00,,0823.2,5.01,0.00,22.0,22.1,00.0,30.9,23.8,05.3,0000.0,0007.02,0004.60,0004.39
2022-03-10 16:01:00,,0823.2,4.99,0.00,22.0,21.9,00.0,30.9,23.8,05.3,0000.0,0007.12,0004.64,0004.42
2022-03-10 16:02:00,,0823.2,4.99,0.00,22.0,21.8,00.0,30.9,23.8,05.4,0000.0,0007.20,0004.67,0004.45
2022-03-10 16:03:00,,0823.2,5.00,0.00,22.0,21.6,00.0,30.9,23.7,05.4,0000.0,0007.25,0004.71,0004.48
2022-03-10 16:04:00,,0823.2,5.01,0.00,22.0,21.4,00.0,30.9,23.7,05.5,0000.0,0007.16,0004.70,0004.48
2022-03-10 16:05:00,,0823.2,5.00,0.00,22.0,21.4,00.0,30.9,23.7,05.5,0000.0,0007.10,0004.70,0004.49
2022-03-10 16:06:00,,0823.3,5.02,0.00,22.0,21.4,00.0,30.9,23.7,05.5,0000.0,0007.64,0004.71,0004.49
2022-03-10 16:07:00,,0823.4,5.00,0.00,22.0,21.3,00.0,30.9,23.7,05.5,0000.0,0007.63,0004.73,0004.50
2022-03-10 16:08:00,,0823.4,5.00,0.00,22.0,21.3,00.0,30.9,23.7,05.5,0000.0,0007.60,0004.73,0004.53
2022-03-10 16:09:00,,0823.3,4.99,0.00,21.9,21.2,00.0,30.9,23.6,05.5,0000.0,0007.57,0004.75,0004.54
2022-03-10 16:10:00,,0823.4,5.00,0.00,21.9,21.0,00.0,30.9,23.5,05.5,0000.0,0007.60,0004.77,0004.55
2022-03-10 16:11:00,,0823.4,5.01,0.00,21.8,20.8,00.0,30.9,23.4,05.4,0000.0,0007.43,0004.76,0004.55
2022-03-10 16:12:00,,0823.4,5.00,0.00,21.8,20.8,00.0,30.9,23.3,05.4,0000.0,0007.36,0004.73,0004.53
2022-03-10 16:13:00,,0823.4,5.00,0.00,21.9,21.9,00.0,30.9,23.6,05.4,0000.0,0007.53,0004.73,0004.53
2022-03-10 16:14:00,,0823.4,5.00,0.00,22.0,22.9,00.0,30.9,24.0,05.4,0000.0,0007.71,0004.71,0004.53
2022-03-10 16:15:00,,0823.4,4.98,0.00,22.1,22.8,00.0,31.0,24.1,05.3,0000.0,0007.74,0004.72,0004.53
2022-03-10 16:16:00,,0823.3,5.00,0.00,22.2,22.4,00.0,31.0,24.0,05.4,0000.0,0007.75,0004.72,0004.54
2022-03-10 16:17:00,,0823.3,4.99,0.00,22.1,22.0,00.0,31.0,23.9,05.3,0000.0,0007.34,0004.74,0004.55
2022-03-10 16:18:00,,0823.3,5.00,0.00,22.1,21.7,00.0,31.0,23.7,05.2,0000.0,0007.13,0004.72,0004.56
2022-03-10 16:19:00,,0823.3,5.00,0.00,22.0,21.4,00.0,31.0,23.6,05.2,0000.0,0007.18,0004.74,0004.56
2022-03-10 16:20:00,,0823.3,5.00,0.00,22.0,21.1,00.0,31.0,23.5,05.3,0000.0,0007.05,0004.73,0004.56
2022-03-10 16:21:00,,0823.4,4.99,0.00,21.9,21.0,00.0,31.0,23.5,05.3,0000.0,0006.99,0004.74,0004.57
2022-03-10 16:22:00,,0823.4,5.01,0.00,21.9,20.9,00.0,30.9,23.5,05.3,0000.0,0007.00,0004.75,0004.58
2022-03-10 16:23:00,,0823.4,5.01,0.00,21.9,20.9,00.0,30.9,23.5,05.4,0000.0,0007.19,0004.79,0004.59
2022-03-10 16:24:00,,0823.3,4.99,0.00,21.9,20.9,00.0,30.9,23.5,05.4,0000.0,0006.99,0004.81,0004.59
2022-03-10 16:25:00,,0823.3,5.00,0.00,21.8,20.8,00.0,30.9,23.5,05.4,0000.0,0006.51,0004.82,0004.60
2022-03-10 16:26:00,,0823.4,5.00,0.00,21.8,20.8,00.0,30.9,23.5,05.4,0000.0,0006.64,0004.85,0004.62
2022-03-10 16:27:00,,0823.4,4.99,0.00,21.8,20.8,00.0,30.9,23.5,05.4,0000.0,0006.82,0004.88,0004.63
2022-03-10 16:28:00,,0823.3,5.00,0.00,21.8,20.8,00.0,30.9,23.5,05.4,0000.0,0006.96,0004.90,0004.64
2022-03-10 16:29:00,,0823.3,5.01,0.00,21.8,21.0,00.0,30.9,23.5,05.4,0000.0,0007.15,0004.94,0004.64
2022-03-10 16:30:00,,0823.3,4.98,0.00,21.9,21.9,00.0,30.9,23.7,05.5,0000.0,0007.29,0004.95,0004.64
2022-03-10 16:31:00,,0823.3,5.00,0.00,22.1,22.8,00.0,30.9,24.0,05.5,0000.0,0007.33,0004.95,0004.63
2022-03-10 16:32:00,,0823.2,5.00,0.00,22.2,22.8,00.0,31.0,24.1,05.4,0000.0,0007.28,0004.94,0004.62
2022-03-10 16:33:00,,0823.3,4.99,0.00,22.2,22.6,00.0,31.0,24.1,05.4,0000.0,0007.26,0004.94,0004.61
2022-03-10 16:34:00,,0823.3,5.00,0.00,22.2,22.3,00.0,31.0,24.1,05.5,0000.0,0007.18,0004.92,0004.60
2022-03-10 16:35:00,,0823.3,5.00,0.00,22.2,22.0,00.0,31.0,24.0,05.3,0000.0,0007.24,0004.94,0004.62
2022-03-10 16:36:00,,0823.3,5.00,0.00,22.1,21.7,00.0,31.0,23.8,05.2,0000.0,0007.35,0005.00,0004.66
2022-03-10 16:37:00,,0823.3,5.00,0.00,22.1,21.5,00.0,31.0,23.7,05.2,0000.0,0007.36,0005.03,0004.70
2022-03-10 16:38:00,,0823.4,5.00,0.00,22.0,21.2,00.0,31.0,23.6,05.1,0000.0,0007.37,0005.08,0004.75
2022-03-10 16:39:00,,0823.3,5.01,0.00,21.9,20.9,00.0,31.0,23.4,05.1,0000.0,0007.41,0005.13,0004.81
2022-03-10 16:40:00,,0823.3,5.00,0.00,21.8,20.8,00.0,31.0,23.4,05.2,0000.0,0007.46,0005.18,0004.85
2022-03-10 16:41:00,,0823.3,5.01,0.00,21.8,20.8,00.0,30.9,23.3,05.2,0000.0,0007.50,0005.22,0004.89
2022-03-10 16:42:00,,0823.3,4.99,0.00,21.7,20.6,00.0,30.9,23.3,05.2,0000.0,0007.57,0005.26,0004.94
2022-03-10 16:43:00,,0823.4,5.00,0.00,21.7,20.6,00.0,30.9,23.2,05.3,0000.0,0007.64,0005.30,0004.99
2022-03-10 16:44:00,,0823.3,5.01,0.00,21.7,20.7,00.0,30.8,23.2,05.2,0000.0,0007.83,0005.36,0005.04
2022-03-10 16:45:00,,0823.3,5.00,0.00,21.8,21.8,00.0,30.9,23.5,05.1,0000.0,0007.95,0005.43,0005.11
2022-03-10 16:46:00,,0823.4,5.01,0.00,21.9,22.9,00.0,30.9,23.8,05.0,0000.0,0007.94,0005.45,0005.15
2022-03-10 16:47:00,,0823.4,5.00,0.00,22.1,22.8,00.0,30.9,24.0,05.1,0000.0,0007.98,0005.48,0005.17
2022-03-10 16:48:00,,0823.3,4.99,0.00,22.1,22.4,00.0,30.9,23.9,05.1,0000.0,0007.99,0005.49,0005.18
2022-03-10 16:49:00,,0823.3,4.99,0.00,22.1,22.2,00.0,31.0,23.9,05.1,0000.0,0007.92,0005.47,0005.17
2022-03-10 16:50:00,,0823.3,4.99,0.00,22.0,21.8,00.0,31.0,23.8,05.1,0000.0,0007.89,0005.46,0005.17
2022-03-10 16:51:00,,0823.4,5.01,0.00,22.0,21.6,00.0,31.0,23.8,05.1,0000.0,0007.91,0005.46,0005.17
2022-03-10 16:52:00,,0823.3,5.01,0.00,22.0,21.5,00.0,31.0,23.8,05.1,0000.0,0007.92,0005.46,0005.16
2022-03-10 16:53:00,,0823.3,5.01,0.00,22.0,21.5,00.0,31.0,23.8,05.2,0000.0,0007.89,0005.46,0005.17
2022-03-10 16:54:00,,0823.3,4.99,0.00,22.0,21.5,00.0,31.0,23.8,05.3,0000.0,0008.18,0005.50,0005.20
2022-03-10 16:55:00,,0823.4,5.00,0.00,22.1,21.5,00.0,31.0,23.8,05.3,0000.0,0008.03,0005.48,0005.18
2022-03-10 16:56:00,,0823.4,5.00,0.00,22.0,21.4,00.0,31.0,23.8,05.3,0000.0,0007.90,0005.41,0005.13
2022-03-10 16:57:00,,0823.4,4.99,0.00,22.0,21.3,00.0,31.0,23.7,05.4,0000.0,0007.85,0005.36,0005.08
2022-03-10 16:58:00,,0823.4,5.00,0.00,22.0,21.1,00.0,31.0,23.7,05.3,0000.0,0007.81,0005.31,0005.04
2022-03-10 16:59:00,,0823.3,5.01,0.00,21.9,21.1,00.0,31.0,23.6,05.3,0000.0,0007.78,0005.27,0005.00
